[[{"header":{"parameterUnit":"m.s-1","parameterCategory":1,"la1":30.2991,"la2":30.254,"lo1":-89.0895,"lo2":-89.0444,"dy":0.0017,"dx":0.0017,"nx":28,"ny":28,"refTime":"2023-10-07T21:00:00:Z","depth":0,"parameterNumber":2,"parameterNumberName":"U-component_of_WINDS"},"data":[0,0,0,0,0,0,0,0,0,0,0,0,0,0,0,0,0,0,0,0,0,0,0,0,0,0,0,0,0,0,0,0,0,0,0,0,0,0,0,0,0,0,0,0,0,0,0,0,0,0,0,0,0,0,0,0,0,0,0.7427,0.7426,0,0.7417,0.7417,0.7417,0.7418,0.7418,0.7418,0.7418,0.7408,0.7408,0.7408,0,0,0,0,0,0,0,0,0,0,0,0,0,0.7444,0.7443,0.7427,0.7426,0.7426,0.7417,0.7417,0.7417,0.7418,0.7418,0.7418,0.7418,0.7408,0.7408,0.7407,0,0,0,0,0,0,0,0,0,0,0,0,0,0.7436,0.7443,0.7427,0.7425,0.7425,0.7417,0.7417,0.7417,0.7418,0.7418,0.7418,0.7418,0.7409,0.7408,0.7407,0.74,0,0,0.7406,0.7405,0,0,0,0,0,0,0,0,0.7436,0.7435,0.7426,0.7426,0.7425,0.7419,0.742,0.7411,0.7418,0.742,0.7418,0.7418,0.7412,0.7411,0.7409,0.7399,0.7399,0.7406,0.7405,0.7405,0.7405,0,0,0,0,0,0,0,0.7437,0.7435,0.7423,0.7426,0.7425,0.7425,0.7424,0.7418,0.7415,0.742,0.742,0.7419,0.7412,0.7409,0.7408,0.7399,0.7406,0.7405,0.7405,0.7405,0.7382,0.7382,0,0,0,0,0,0,0.7437,0.7436,0.7423,0.7423,0.7431,0.7425,0.7424,0.7421,0.7415,0.7414,0.7419,0.7419,0.741,0.7409,0.7408,0.7399,0.7405,0.7404,0.7404,0.7382,0.7382,0.7382,0,0,0,0,0,0,0.7438,0.7436,0.7424,0.7429,0.7428,0.7424,0.7421,0.742,0.7418,0.7414,0.7414,0.7417,0.741,0.7409,0.7402,0.7398,0.7404,0.7404,0.7383,0.7382,0.7382,0.738,0,0,0,0,0,0,0.7438,0.7436,0.7434,0.7429,0.7427,0.7418,0.7421,0.742,0.7417,0.7417,0.7412,0.7412,0.741,0.7403,0.7401,0.7398,0.7403,0.7383,0.7382,0.7382,0.738,0.7379,0.7379,0,0,0,0,0,0.7439,0.7434,0.7434,0.7432,0.7424,0.7418,0.7416,0.7415,0.7417,0.7414,0.7411,0.7412,0.7399,0.7402,0.74,0.7396,0.7383,0.7383,0.7382,0.738,0.7379,0.7379,0,0,0,0,0,0,0.7438,0.7433,0.7433,0.7426,0.7422,0.7418,0.7414,0.7414,0.7409,0.741,0.7408,0.7407,0.74,0.7397,0.7401,0.7388,0.7391,0.739,0.739,0.7389,0.7389,0.739,0.7403,0,0,0,0,0,0.7437,0.7433,0.7428,0.7423,0.7421,0.7418,0.7415,0.7414,0.741,0.7408,0.7405,0.7401,0.7395,0.7392,0.7387,0.7379,0.7378,0.7376,0.7375,0.7374,0.7374,0.7369,0.7368,0.738,0.738,0.738,0,0,0.7435,0.7432,0.7429,0.7422,0.7419,0.7414,0.7416,0.7411,0.7407,0.7407,0.74,0.7398,0.7393,0.7385,0.7382,0.7383,0.737,0.7374,0.7373,0.7373,0.7368,0.7367,0.7366,0.738,0.738,0.738,0,0,0.7429,0.7426,0.7421,0.7417,0.7413,0.7411,0.7409,0.7404,0.7403,0.7396,0.7395,0.739,0.7382,0.7378,0.7375,0.7366,0.7367,0.7365,0.7361,0.7357,0.7356,0.7355,0.7352,0.7351,0.7364,0.7364,0.7364,0,0.7427,0.742,0.7418,0.7413,0.741,0.7409,0.7403,0.74,0.7394,0.7392,0.7393,0.7382,0.7378,0.737,0.7367,0.7365,0.7363,0.7366,0.7356,0.7355,0.7354,0.7351,0.735,0.7364,0.7364,0.7364,0.7364,0,0.7418,0.7413,0.7409,0.7403,0.7399,0.7394,0.7391,0.7387,0.7386,0.7384,0.7376,0.7372,0.7366,0.7364,0.7363,0.7355,0.7356,0.7356,0.7359,0.7353,0.735,0.7349,0.7364,0.7364,0.7364,0.7364,0,0,0.7412,0.7404,0.7403,0.74,0.7394,0.739,0.7384,0.7378,0.7375,0.737,0.7365,0.7357,0.7358,0.7355,0.7353,0.7349,0.7342,0.735,0.735,0.7349,0.7332,0.7332,0.7331,0.7342,0.7342,0.7341,0.7333,0,0.7406,0.7396,0.7393,0.7385,0.738,0.7378,0.7373,0.7369,0.7366,0.7361,0.7358,0.7352,0.7354,0.7351,0.7347,0.7344,0.7339,0.7344,0.7337,0.7337,0.7339,0.7329,0.7329,0.7322,0.7332,0.7332,0.7331,0,0.7397,0.7392,0.7383,0.7377,0.7375,0.737,0.7364,0.736,0.7354,0.7352,0.7348,0.7347,0.734,0.7343,0.7333,0.7337,0.7334,0.7332,0.7331,0.7331,0.7334,0.7329,0.7319,0.7318,0.733,0.733,0.733,0,0.7394,0.7385,0.7378,0.7375,0.7368,0.7365,0.7362,0.7357,0.7353,0.7348,0.7345,0.7339,0.7336,0.7331,0.7327,0.733,0.7318,0.7321,0.7317,0.7317,0.7315,0.7315,0.7304,0.7312,0.7312,0.7312,0.7312,0,0.7387,0.7381,0.7376,0.7372,0.7366,0.7363,0.7356,0.7353,0.7348,0.7343,0.7341,0.7337,0.7332,0.7327,0.7324,0.7317,0.7315,0.7313,0.7313,0.7314,0.7314,0.7312,0.7313,0.7312,0.7312,0.7312,0.7312,0,0.7383,0.7379,0.7372,0.7365,0.7364,0.7359,0.7354,0.7349,0.7346,0.734,0.7338,0.7333,0.7326,0.7322,0.7314,0.7312,0.7304,0.7303,0.7306,0.7306,0.7302,0.7302,0.729,0.7288,0.7296,0.7296,0.7296,0,0.7379,0.7375,0.7368,0.7364,0.7361,0.7355,0.7352,0.7348,0.7344,0.7337,0.7333,0.7327,0.7321,0.731,0.7306,0.7299,0.7299,0.7295,0.7298,0.7299,0.7299,0.7299,0.7299,0.7294,0.7294,0.7294,0.7294,0,0.7373,0.7371,0.7365,0.7359,0.7355,0.735,0.7345,0.7342,0.7337,0.7332,0.7326,0.7321,0.7312,0.7306,0.7298,0.7295,0.7294,0.7293,0.7292,0.7293,0.7295,0.7294,0.7305,0.7294,0.7294,0.7294,0.7294,0.7294,0.7368,0.7364,0.7359,0.7353,0.7348,0.7344,0.7339,0.7335,0.7329,0.7322,0.732,0.7313,0.7307,0.7297,0.7293,0.7287,0.7288,0.7286,0.7285,0.7285,0.7285,0.7295,0.7286,0.7286,0.7286,0.7286,0.7286,0,0.7362,0.7358,0.7353,0.7346,0.7341,0.734,0.7334,0.733,0.7323,0.7318,0.7312,0.7304,0.7297,0.7292,0.7284,0.7281,0.728,0.7279,0.7279,0.7278,0.7285,0.7287,0.728,0.728,0.728,0.728,0.728,0.728,0.7358,0.7351,0.7349,0.7339,0.7335,0.7329,0.7325,0.732,0.7316,0.7307,0.7301,0.7298,0.7292,0.7284,0.7278,0.7276,0.7274,0.7273,0.7271,0.7277,0.7278,0.7279,0.7281,0.7272,0.7272,0.7265,0.7265,0.7265]},{"header":{"parameterUnit":"m.s-1","parameterCategory":1,"la1":30.2991,"la2":30.254,"lo1":-89.0895,"lo2":-89.0444,"dy":0.0017,"dx":0.0017,"nx":28,"ny":28,"refTime":"2023-10-07T21:00:00:Z","depth":0,"parameterNumber":3,"parameterNumberName":"V-component_of_WINDS"},"data":[0,0,0,0,0,0,0,0,0,0,0,0,0,0,0,0,0,0,0,0,0,0,0,0,0,0,0,0,0,0,0,0,0,0,0,0,0,0,0,0,0,0,0,0,0,0,0,0,0,0,0,0,0,0,0,0,0,0,1.9359,1.9358,0,1.9346,1.9346,1.9345,1.9376,1.9377,1.9378,1.9379,1.9361,1.936,1.9358,0,0,0,0,0,0,0,0,0,0,0,0,0,1.9406,1.9405,1.9359,1.9358,1.9358,1.9346,1.9346,1.9345,1.9376,1.9377,1.9378,1.9379,1.9361,1.936,1.9358,0,0,0,0,0,0,0,0,0,0,0,0,0,1.9388,1.9404,1.9359,1.9372,1.9373,1.9346,1.9346,1.9345,1.9376,1.9377,1.9379,1.938,1.9362,1.936,1.9358,1.9315,0,0,1.9351,1.9351,0,0,0,0,0,0,0,0,1.9389,1.9386,1.937,1.9371,1.9372,1.9364,1.9356,1.9335,1.9375,1.9375,1.9379,1.9381,1.936,1.9359,1.9353,1.9314,1.9314,1.9351,1.935,1.9349,1.9348,0,0,0,0,0,0,0,1.939,1.9387,1.9353,1.937,1.9371,1.9378,1.9377,1.9352,1.9359,1.9375,1.9377,1.9375,1.9361,1.9355,1.9353,1.9313,1.9351,1.9349,1.9348,1.9347,1.9238,1.9237,0,0,0,0,0,0,1.939,1.9388,1.9354,1.9353,1.9385,1.9375,1.9375,1.9365,1.936,1.936,1.9374,1.9377,1.9358,1.9355,1.9352,1.9301,1.9349,1.9347,1.9346,1.924,1.9238,1.9236,0,0,0,0,0,0,1.9391,1.9387,1.9354,1.9371,1.9367,1.9373,1.9362,1.9364,1.9358,1.9359,1.936,1.9366,1.9359,1.9355,1.9324,1.9301,1.9346,1.9344,1.9242,1.9239,1.9237,1.9199,0,0,0,0,0,0,1.9392,1.9387,1.9372,1.9371,1.9366,1.9328,1.9361,1.9363,1.9354,1.9358,1.9352,1.9352,1.936,1.9327,1.9322,1.9299,1.9343,1.9244,1.9241,1.9238,1.9202,1.9195,1.919,0,0,0,0,0,1.9394,1.9361,1.9371,1.9367,1.9348,1.9327,1.9324,1.9334,1.9353,1.9336,1.9338,1.9353,1.9305,1.9324,1.9318,1.9294,1.9245,1.9242,1.9238,1.9205,1.9197,1.919,0,0,0,0,0,0,1.9357,1.9361,1.9372,1.9338,1.9332,1.9332,1.9312,1.9325,1.9313,1.9316,1.9328,1.9326,1.9293,1.9291,1.9312,1.9252,1.9278,1.9273,1.9255,1.9247,1.924,1.9241,1.9341,0,0,0,0,0,1.9346,1.933,1.9333,1.9302,1.9299,1.9306,1.9297,1.9306,1.9299,1.9296,1.9295,1.9287,1.927,1.9258,1.9243,1.9203,1.9201,1.9183,1.9177,1.9171,1.9166,1.9144,1.9136,1.9224,1.9224,1.9224,0,0,1.932,1.932,1.9309,1.9295,1.9291,1.9273,1.9303,1.9283,1.9269,1.9293,1.9264,1.9263,1.9254,1.9218,1.9202,1.9215,1.9142,1.9167,1.9163,1.916,1.9139,1.9131,1.9123,1.9222,1.9222,1.9222,0,0,1.9265,1.9264,1.9238,1.9234,1.9229,1.9234,1.9228,1.9226,1.9227,1.9198,1.9216,1.9199,1.917,1.9163,1.9155,1.9098,1.9111,1.9093,1.9059,1.9037,1.903,1.9024,1.9002,1.8994,1.9088,1.9088,1.9088,0,1.9234,1.9208,1.9222,1.9201,1.9193,1.9216,1.9189,1.9184,1.9173,1.9167,1.9182,1.9146,1.9142,1.9105,1.9091,1.9085,1.9077,1.9093,1.903,1.9024,1.9019,1.8998,1.899,1.9086,1.9086,1.9086,1.9087,0,1.917,1.9152,1.9131,1.9122,1.9112,1.9088,1.9097,1.9085,1.9095,1.9098,1.9068,1.9065,1.9049,1.9041,1.9049,1.9004,1.9012,1.9029,1.9055,1.9008,1.8988,1.8981,1.9083,1.9083,1.9084,1.9085,0,0,1.9089,1.9089,1.9081,1.9077,1.9073,1.9059,1.9035,1.9021,1.9011,1.9003,1.8982,1.8957,1.8973,1.8964,1.8973,1.8953,1.8907,1.8972,1.8972,1.8959,1.8855,1.8842,1.8833,1.8916,1.8915,1.8914,1.8856,0,1.9033,1.8994,1.9007,1.8966,1.8949,1.8971,1.895,1.8945,1.8947,1.8932,1.8934,1.8916,1.8939,1.8934,1.8916,1.8916,1.8886,1.8921,1.8895,1.8894,1.8895,1.8823,1.8809,1.8754,1.8848,1.8847,1.8846,0,1.8963,1.8954,1.8912,1.8912,1.8905,1.8886,1.8874,1.886,1.8854,1.8857,1.8848,1.886,1.8836,1.8863,1.8828,1.8852,1.8842,1.8841,1.8839,1.8836,1.8866,1.8816,1.8737,1.8728,1.8835,1.8836,1.8836,0,1.8906,1.8884,1.8856,1.8852,1.8851,1.8837,1.8836,1.8832,1.8822,1.8812,1.8805,1.8791,1.8783,1.8771,1.8779,1.8798,1.8742,1.8771,1.8742,1.8742,1.8728,1.8729,1.8645,1.8724,1.8725,1.8725,1.8725,0,1.8842,1.8815,1.8831,1.8813,1.8784,1.8798,1.8768,1.8769,1.8765,1.8747,1.8766,1.8748,1.876,1.8743,1.8749,1.8718,1.8715,1.8715,1.8717,1.8713,1.8712,1.8705,1.8709,1.8723,1.8723,1.8723,1.8724,0,1.8773,1.8783,1.8754,1.8756,1.8756,1.8734,1.8735,1.8718,1.8723,1.87,1.8695,1.8701,1.8682,1.8689,1.8668,1.8672,1.8633,1.864,1.8635,1.8637,1.8608,1.861,1.8515,1.8503,1.8592,1.8591,1.859,0,1.8731,1.8711,1.8712,1.8702,1.87,1.8683,1.8675,1.8688,1.8678,1.867,1.8653,1.8637,1.8624,1.8592,1.8594,1.8578,1.8584,1.8552,1.8581,1.8578,1.8582,1.8582,1.858,1.8545,1.8544,1.8543,1.8543,0,1.8654,1.866,1.8647,1.8636,1.8626,1.8617,1.861,1.8601,1.8614,1.8601,1.8583,1.8573,1.8553,1.8535,1.8521,1.8518,1.8531,1.8534,1.8526,1.8521,1.8518,1.8518,1.8618,1.8535,1.8536,1.8537,1.8537,1.8537,1.8596,1.858,1.8577,1.8563,1.8559,1.8552,1.8537,1.854,1.8526,1.8511,1.852,1.8498,1.8492,1.8475,1.847,1.8453,1.8465,1.8454,1.8451,1.8448,1.8444,1.8523,1.845,1.845,1.8451,1.8451,1.8451,0,1.8519,1.8519,1.8506,1.8496,1.8484,1.8501,1.8494,1.8482,1.8464,1.8458,1.8446,1.8424,1.8407,1.8408,1.8392,1.8378,1.8384,1.8373,1.8373,1.8372,1.8434,1.8442,1.8369,1.8369,1.8369,1.8369,1.8369,1.8369,1.8477,1.845,1.8456,1.8426,1.8426,1.8407,1.8401,1.8395,1.839,1.8366,1.8353,1.8355,1.8351,1.8335,1.832,1.8321,1.8313,1.83,1.8302,1.836,1.8368,1.8376,1.8383,1.8299,1.8298,1.8242,1.8242,1.8241]}]]